sat.trackr.live / text

‹ back to catalog

TIANTONG-1 3

NORAD 47321 · 2021-003A

PAYLOAD ACTIVE UNKNOWN

§ Identity

Operator
Country
PRC
Launch date
2021-01-19
Launch site
XICLF
Launch vehicle
Mass (kg)
RCS (m²)

Purposes: comms

External: N2YO · Heavens-Above · Gunter

§ Orbital elements

Epoch: 2026-09-20T01:54:44.878176Z

Period
1,436.07 min
Inclination
1.7006°
Eccentricity
0.0003226
Mean motion
1.00273764 rev/d
Perigee alt
35,772.4 km
Apogee alt
35,799.6 km
Semi-major
42,164.2 km
B*
0.0000e+0
RAAN
345.3795°
Arg perigee
203.7957°
Mean anomaly
280.0212°
Rev number
2,091

§ Raw data

TIANTONG-1 31 47321U 21003A   26263.07968609 -.00000158  00000+0  00000+0 0  99902 47321   1.7006 345.3795 0003226 203.7957 280.0212  1.00273764 20912

JSON: /api/v1/satellites/47321 · /tle

For live sub-satellite position, see the globe view (requires WebGL).

§ Visibility from observer

Set your observer location to see the next 7 days of passes ≥ 10°. The values pass through the URL so the page stays shareable.

No JS? Fill the form by hand. The geolocation button needs JavaScript.